TimeEST,TemperatureF,Dew PointF,Humidity,Sea Level PressureIn,VisibilityMPH,Wind Direction,Wind SpeedMPH,Gust SpeedMPH,PrecipitationIn,Events,Conditions,WindDirDegrees,DateUTC
12:53 AM,-9999,-9999,N/A,29.94,-9999.0,North,-9999.0,-,N/A,,Unknown,0,2013-12-02 05:53:00
1:53 AM,-9999,-9999,N/A,29.93,-9999.0,North,-9999.0,-,N/A,,Unknown,0,2013-12-02 06:53:00
2:53 AM,-9999,-9999,N/A,29.93,-9999.0,North,-9999.0,-,N/A,,Unknown,0,2013-12-02 07:53:00
3:53 AM,-9999,-9999,N/A,29.91,-9999.0,North,-9999.0,-,N/A,,Unknown,0,2013-12-02 08:53:00
4:53 AM,-9999,-9999,N/A,29.91,-9999.0,North,-9999.0,-,N/A,,Unknown,0,2013-12-02 09:53:00
5:53 AM,-9999,-9999,N/A,29.92,-9999.0,North,-9999.0,-,N/A,,Unknown,0,2013-12-02 10:53:00
6:53 AM,-9999,-9999,N/A,29.92,-9999.0,North,-9999.0,-,N/A,,Unknown,0,2013-12-02 11:53:00
7:04 AM,-9999,-9999,N/A,29.92,4.0,NW,6.9,-,N/A,,Overcast,320,2013-12-02 12:04:00
7:53 AM,-9999,-9999,N/A,29.92,8.0,NW,6.9,-,N/A,,Overcast,320,2013-12-02 12:53:00
8:00 AM,-9999,-9999,N/A,29.92,-9999.0,North,-9999.0,-,N/A,,Unknown,0,2013-12-02 13:00:00
8:36 AM,-9999,-9999,N/A,29.92,10.0,NNW,5.8,-,N/A,,Overcast,340,2013-12-02 13:36:00
8:53 AM,-9999,-9999,N/A,29.92,10.0,NNW,5.8,-,N/A,,Overcast,340,2013-12-02 13:53:00
9:00 AM,-9999,-9999,N/A,29.93,-9999.0,North,-9999.0,-,N/A,,Unknown,0,2013-12-02 14:00:00
9:53 AM,-9999,-9999,N/A,29.92,8.0,NW,6.9,-,N/A,,Overcast,320,2013-12-02 14:53:00
10:53 AM,-9999,-9999,N/A,29.92,8.0,NW,6.9,-,N/A,,Mostly Cloudy,320,2013-12-02 15:53:00
11:53 AM,-9999,-9999,N/A,29.90,8.0,WNW,6.9,-,N/A,,Mostly Cloudy,290,2013-12-02 16:53:00
12:53 PM,-9999,-9999,N/A,29.89,10.0,WNW,3.5,-,N/A,,Overcast,300,2013-12-02 17:53:00
1:53 PM,-9999,-9999,N/A,29.88,10.0,NW,6.9,-,N/A,,Overcast,320,2013-12-02 18:53:00
2:53 PM,-9999,-9999,N/A,29.86,8.0,NE,4.6,-,N/A,,Mostly Cloudy,50,2013-12-02 19:53:00
3:53 PM,-9999,-9999,N/A,29.87,10.0,NE,6.9,-,N/A,,Mostly Cloudy,50,2013-12-02 20:53:00
4:53 PM,-9999,-9999,N/A,29.87,10.0,NE,9.2,-,N/A,,Mostly Cloudy,50,2013-12-02 21:53:00
5:53 PM,-9999,-9999,N/A,29.88,8.0,ENE,11.5,-,N/A,,Mostly Cloudy,60,2013-12-02 22:53:00
6:00 PM,-9999,-9999,N/A,29.88,-9999.0,North,-9999.0,-,N/A,,Unknown,0,2013-12-02 23:00:00
6:53 PM,-9999,-9999,N/A,29.89,10.0,ENE,11.5,-,N/A,,Mostly Cloudy,60,2013-12-02 23:53:00
7:00 PM,-9999,-9999,N/A,29.89,-9999.0,North,-9999.0,-,N/A,,Unknown,0,2013-12-03 00:00:00
7:53 PM,-9999,-9999,N/A,29.89,10.0,ENE,9.2,-,N/A,,Mostly Cloudy,60,2013-12-03 00:53:00
8:53 PM,-9999,-9999,N/A,29.89,-9999.0,North,-9999.0,-,N/A,,Unknown,0,2013-12-03 01:53:00
9:07 PM,-9999,-9999,N/A,29.89,10.0,East,6.9,-,N/A,,Scattered Clouds,80,2013-12-03 02:07:00
9:53 PM,-9999,-9999,N/A,29.89,10.0,ENE,5.8,-,N/A,,Scattered Clouds,70,2013-12-03 02:53:00
10:53 PM,-9999,-9999,N/A,29.89,10.0,NE,5.8,-,N/A,,Scattered Clouds,50,2013-12-03 03:53:00
11:53 PM,-9999,-9999,N/A,29.90,-9999.0,North,-9999.0,-,N/A,,Unknown,0,2013-12-03 04:53:00